FW3806 Weather Reports


Display with metric or nautical units.
time (UTC)temp
F
wind
direction
speed
MPH
gust
MPH
rain 1hr
in
rain 24hr
in
rain mn
in
humidity
%
barometer
mb
20260906103051 79 79 0.0 3.0 0.00 0.00 0.00 26 1008.5
20260906101551 79 96 1.0 4.0 0.00 0.00 0.00 25 1008.5
20260906100049 77 68 0.0 0.0 0.00 0.00 0.00 27 1008.4
20260906094551 79 82 0.0 0.0 0.00 0.00 0.00 26 1008.3
20260906093048 81 148 0.0 3.0 0.00 0.00 0.00 24 1008.4
20260906091545 79 182 0.0 2.0 0.00 0.00 0.00 25 1008.3
20260906090044 77 189 0.0 1.0 0.00 0.00 0.00 27 1008.3
20260906084543 76 318 0.0 0.0 0.00 0.00 0.00 30 1008.3
20260906083041 76 105 0.0 0.0 0.00 0.00 0.00 29 1008.4
20260906081544 78 105 0.0 0.0 0.00 0.00 0.00 28 1008.6
20260906080040 78 84 0.0 0.0 0.00 0.00 0.00 27 1008.6
20260906074543 77 318 0.0 0.0 0.00 0.00 0.00 28 1008.6
20260906073032 78 115 0.0 0.0 0.00 0.00 0.00 27 1008.7
20260906071535 79 115 0.0 0.0 0.00 0.00 0.00 26 1008.7
20260906070029 79 115 0.0 0.0 0.00 0.00 0.00 27 1008.7
20260906064528 82 115 0.0 0.0 0.00 0.00 0.00 25 1008.8
20260906063027 82 127 0.0 0.0 0.00 0.00 0.00 24 1008.7
20260906061527 81 151 0.0 1.0 0.00 0.00 0.00 24 1008.7
20260906060028 80 276 0.0 0.0 0.00 0.00 0.00 25 1008.8
20260906054529 82 276 0.0 0.0 0.00 0.00 0.00 24 1008.6
20260906053026 83 276 0.0 0.0 0.00 0.00 0.00 22 1008.7
20260906051521 83 276 0.0 0.0 0.00 0.00 0.00 22 1008.7
20260906050032 83 276 0.0 0.0 0.00 0.00 0.00 22 1008.8
20260906044533 83 224 0.0 1.0 0.00 0.00 0.00 21 1008.8
20260906043020 84 152 0.0 0.0 0.00 0.00 0.00 21 1008.9
20260906041520 86 152 0.0 0.0 0.00 0.00 0.00 19 1008.9
20260906040027 86 158 0.0 0.0 0.00 0.00 0.00 19 1008.9
20260906034518 87 159 0.0 4.0 0.00 0.00 0.00 18 1008.6
20260906033034 87 186 1.0 7.0 0.00 0.00 0.00 18 1008.4
20260906031516 88 165 0.0 8.0 0.00 0.00 0.00 18 1008.1
20260906030016 88 161 1.0 6.0 0.00 0.00 0.00 18 1007.9
20260906024515 88 174 2.0 8.0 0.00 0.00 0.00 17 1007.9
20260906023015 89 121 0.0 8.0 0.00 0.00 0.00 17 1007.8
20260906021514 89 164 3.0 8.0 0.00 0.00 0.00 17 1007.7
20260906020012 90 167 1.0 11.0 0.00 0.00 0.00 16 1007.7
20260906014512 92 158 1.0 6.0 0.00 0.00 0.00 15 1007.7
20260906013013 93 193 0.0 3.0 0.00 0.00 0.00 14 1007.8
20260906011510 93 147 3.0 11.0 0.00 0.00 0.00 13 1007.9
20260906010009 94 153 2.0 8.0 0.00 0.00 0.00 12 1007.8
20260906004508 95 248 1.0 8.0 0.00 0.00 0.00 11 1007.7
20260906003008 95 196 1.0 6.0 0.00 0.00 0.00 9 1007.6
20260906001507 95 168 3.0 17.0 0.00 0.00 0.00 8 1007.6
20260906000007 95 141 5.0 16.0 0.00 0.00 0.00 9 1007.6
20260905234507 95 139 5.0 21.0 0.00 0.00 0.00 8 1007.5
20260905233006 95 148 7.0 17.0 0.00 0.00 0.00 7 1007.8
20260905231505 95 144 10.0 18.0 0.00 0.00 0.00 7 1007.6
20260905230005 95 205 7.0 22.0 0.00 0.00 0.00 8 1007.7
20260905224505 95 165 8.0 26.0 0.00 0.00 0.00 8 1007.8
20260905223003 95 199 8.0 25.0 0.00 0.00 0.00 7 1008.1
20260905221503 95 228 8.0 26.0 0.00 0.00 0.00 7 1008.2
20260905220002 95 246 11.0 22.0 0.00 0.00 0.00 6 1008.5
20260905214602 95 240 4.0 21.0 0.00 0.00 0.00 5 1008.6
20260905213100 95 174 4.0 17.0 0.00 0.00 0.00 5 1008.7
20260905211629 95 212 2.0 20.0 0.00 0.00 0.00 6 1008.8
20260905210108 95 181 5.0 15.0 0.00 0.00 0.00 5 1008.9
20260905204606 95 252 5.0 15.0 0.00 0.00 0.00 5 1009.0
20260905203115 95 206 2.0 17.0 0.00 0.00 0.00 5 1009.1
20260905201559 94 273 8.0 18.0 0.00 0.00 0.00 5 1009.1
20260905200059 94 207 6.0 13.0 0.00 0.00 0.00 6 1009.3
20260905194550 93 163 6.0 16.0 0.00 0.00 0.00 8 1009.4
20260905193047 91 129 1.0 11.0 0.00 0.00 0.00 11 1009.6
20260905191544 89 60 5.0 15.0 0.00 0.00 0.00 13 1009.7
20260905190042 89 94 9.0 18.0 0.00 0.00 0.00 14 1010.0
20260905184541 88 122 8.0 14.0 0.00 0.00 0.00 14 1010.3
20260905183038 88 142 6.0 14.0 0.00 0.00 0.00 14 1010.5
20260905181550 87 174 5.0 14.0 0.00 0.00 0.00 14 1010.6
20260905180033 86 139 6.0 15.0 0.00 0.00 0.00 17 1010.6
20260905174538 85 134 8.0 16.0 0.00 0.00 0.00 18 1010.5
20260905173033 84 58 11.0 16.0 0.00 0.00 0.00 18 1010.6
20260905171537 84 102 9.0 16.0 0.00 0.00 0.00 20 1010.6
20260905170023 83 158 9.0 14.0 0.00 0.00 0.00 20 1010.6
20260905164525 82 139 6.0 18.0 0.00 0.00 0.00 22 1010.5
20260905163019 81 107 6.0 15.0 0.00 0.00 0.00 23 1010.5
20260905161517 80 47 5.0 11.0 0.00 0.00 0.00 24 1010.5
20260905160017 79 86 8.0 13.0 0.00 0.00 0.00 25 1010.4
20260905154514 78 121 5.0 9.0 0.00 0.00 0.00 25 1010.5
20260905153020 78 128 0.0 5.0 0.00 0.00 0.00 26 1010.6
20260905151513 77 96 3.0 7.0 0.00 0.00 0.00 26 1010.6
20260905150012 76 85 0.0 6.0 0.00 0.00 0.00 27 1010.5
20260905144513 75 102 1.0 8.0 0.00 0.00 0.00 28 1010.4
20260905143009 75 106 0.0 8.0 0.00 0.00 0.00 29 1010.2
20260905141507 74 126 3.0 8.0 0.00 0.00 0.00 30 1009.9
20260905140006 72 105 5.0 7.0 0.00 0.00 0.00 31 1009.9
20260905134504 72 96 4.0 6.0 0.00 0.00 0.00 32 1009.4
20260905133101 71 112 0.0 1.0 0.00 0.00 0.00 32 1009.2
20260905131605 71 83 3.0 5.0 0.00 0.00 0.00 32 1009.0
20260905130059 70 122 0.0 1.0 0.00 0.00 0.00 33 1009.0
20260905124557 70 121 0.0 0.0 0.00 0.00 0.00 33 1008.9
20260905123053 72 121 0.0 1.0 0.00 0.00 0.00 31 1008.8
20260905121555 73 140 0.0 2.0 0.00 0.00 0.00 30 1008.9
20260905120110 73 122 0.0 1.0 0.00 0.00 0.00 30 1008.8
20260905114552 73 94 0.0 1.0 0.00 0.00 0.00 30 1008.8
20260905113051 73 92 0.0 0.0 0.00 0.00 0.00 29 1008.7
20260905111607 74 70 0.0 1.0 0.00 0.00 0.00 28 1008.7
20260905110056 74 84 0.0 1.0 0.00 0.00 0.00 28 1008.7
20260905104549 73 84 0.0 0.0 0.00 0.00 0.00 29 1008.7